Time,TemperatureF,DewpointF,PressureIn,WindDirection,WindDirectionDegrees,WindSpeedMPH,WindSpeedGustMPH,Humidity,HourlyPrecipIn,Conditions,Clouds,dailyrainin,SoftwareType,DateUTC
2013-03-16 00:14:00,55.4,43.4,30.07,NE,45,3.7,-999.0,64,-99.99,,,0.00,Acu-Link.com,2013-03-16 04:14:00,
2013-03-16 00:29:00,55.2,43.6,30.07,SE,135,2.2,-999.0,65,-99.99,,,0.00,Acu-Link.com,2013-03-16 04:29:00,
2013-03-16 00:44:00,53.8,41.9,30.07,SSE,157,2.2,-999.0,64,-99.99,,,0.00,Acu-Link.com,2013-03-16 04:44:00,
2013-03-16 01:00:00,52.9,41.1,30.06,West,270,0.0,-999.0,64,-99.99,,,0.00,Acu-Link.com,2013-03-16 05:00:00,
2013-03-16 01:15:00,52.5,42.2,30.05,WSW,247,0.0,-999.0,68,-99.99,,,0.00,Acu-Link.com,2013-03-16 05:15:00,
2013-03-16 01:30:00,52.0,41.8,30.05,SSW,202,0.0,-999.0,68,-99.99,,,0.00,Acu-Link.com,2013-03-16 05:30:00,
2013-03-16 01:46:00,51.6,42.1,30.05,SW,225,2.7,-999.0,70,-99.99,,,0.00,Acu-Link.com,2013-03-16 05:46:00,
2013-03-16 02:16:00,50.7,41.3,30.04,SW,225,2.2,-999.0,70,-99.99,,,0.00,Acu-Link.com,2013-03-16 06:16:00,
2013-03-16 02:32:00,50.2,40.8,30.03,SW,225,1.7,-999.0,70,-99.99,,,0.00,Acu-Link.com,2013-03-16 06:32:00,
2013-03-16 02:47:00,49.5,40.5,30.04,SW,225,1.1,-999.0,71,-99.99,,,0.00,Acu-Link.com,2013-03-16 06:47:00,
2013-03-16 03:02:00,49.1,40.5,30.03,SW,225,0.0,-999.0,72,-99.99,,,0.00,Acu-Link.com,2013-03-16 07:02:00,
2013-03-16 03:17:00,49.3,41.4,30.03,WSW,247,1.1,-999.0,74,-99.99,,,0.00,Acu-Link.com,2013-03-16 07:17:00,
2013-03-16 03:32:00,48.9,41.7,30.03,SSW,202,1.7,-999.0,76,-99.99,,,0.00,Acu-Link.com,2013-03-16 07:32:00,
2013-03-16 03:48:00,48.2,41.0,30.04,WSW,247,1.7,-999.0,76,-99.99,,,0.00,Acu-Link.com,2013-03-16 07:48:00,
2013-03-16 04:03:00,47.8,40.9,30.03,WSW,247,1.1,-999.0,77,-99.99,,,0.00,Acu-Link.com,2013-03-16 08:03:00,
2013-03-16 04:18:00,47.3,40.5,30.03,SSE,157,1.7,-999.0,77,-99.99,,,0.00,Acu-Link.com,2013-03-16 08:18:00,
2013-03-16 04:34:00,46.4,39.3,30.03,WSW,247,0.0,-999.0,76,-99.99,,,0.00,Acu-Link.com,2013-03-16 08:34:00,
2013-03-16 04:49:00,46.4,39.9,30.03,WSW,247,0.0,-999.0,78,-99.99,,,0.00,Acu-Link.com,2013-03-16 08:49:00,
2013-03-16 05:04:00,45.9,39.4,30.03,WSW,247,0.0,-999.0,78,-99.99,,,0.00,Acu-Link.com,2013-03-16 09:04:00,
2013-03-16 05:19:00,45.5,39.0,30.02,SSW,202,1.7,-999.0,78,-99.99,,,0.00,Acu-Link.com,2013-03-16 09:19:00,
2013-03-16 05:34:00,46.2,40.4,30.02,SSW,202,2.2,-999.0,80,-99.99,,,0.00,Acu-Link.com,2013-03-16 09:34:00,
2013-03-16 05:50:00,46.4,40.6,30.03,SSW,202,0.0,-999.0,80,-99.99,,,0.00,Acu-Link.com,2013-03-16 09:50:00,
2013-03-16 06:05:00,46.9,41.7,30.02,SSW,202,0.0,-999.0,82,-99.99,,,0.00,Acu-Link.com,2013-03-16 10:05:00,
2013-03-16 06:20:00,47.1,42.2,30.03,SSW,202,0.0,-999.0,83,-99.99,,,0.00,Acu-Link.com,2013-03-16 10:20:00,
2013-03-16 06:36:00,47.1,42.2,30.03,SSW,202,0.0,-999.0,83,-99.99,,,0.00,Acu-Link.com,2013-03-16 10:36:00,
2013-03-16 07:06:00,46.9,42.3,30.03,SSW,202,2.2,-999.0,84,-99.99,,,0.00,Acu-Link.com,2013-03-16 11:06:00,
2013-03-16 07:37:00,46.8,41.0,30.04,SSW,202,2.2,-999.0,80,-99.99,,,0.00,Acu-Link.com,2013-03-16 11:37:00,
2013-03-16 07:52:00,48.0,43.1,30.05,SW,225,1.1,-999.0,83,-99.99,,,0.00,Acu-Link.com,2013-03-16 11:52:00,
2013-03-16 08:07:00,51.4,45.8,30.05,SSW,202,0.0,-999.0,81,-99.99,,,0.00,Acu-Link.com,2013-03-16 12:07:00,
2013-03-16 08:23:00,54.9,46.8,30.06,SSW,202,0.0,-999.0,74,-99.99,,,0.00,Acu-Link.com,2013-03-16 12:23:00,
2013-03-16 08:38:00,57.9,47.4,30.06,SSW,202,1.7,-999.0,68,-99.99,,,0.00,Acu-Link.com,2013-03-16 12:38:00,
2013-03-16 08:53:00,61.5,47.5,30.06,South,180,1.1,-999.0,60,-99.99,,,0.00,Acu-Link.com,2013-03-16 12:53:00,
2013-03-16 09:09:00,65.7,48.1,30.06,SSE,157,4.2,-999.0,53,-99.99,,,0.00,Acu-Link.com,2013-03-16 13:09:00,
2013-03-16 09:24:00,67.1,47.3,30.06,ESE,112,2.7,-999.0,49,-99.99,,,0.00,Acu-Link.com,2013-03-16 13:24:00,
2013-03-16 09:39:00,70.0,49.4,30.06,ESE,112,3.2,-999.0,48,-99.99,,,0.00,Acu-Link.com,2013-03-16 13:39:00,
2013-03-16 09:54:00,70.3,47.9,30.06,ESE,112,2.7,-999.0,45,-99.99,,,0.00,Acu-Link.com,2013-03-16 13:54:00,
2013-03-16 10:09:00,64.9,44.2,30.06,ESE,112,6.3,-999.0,47,-99.99,,,0.00,Acu-Link.com,2013-03-16 14:09:00,
2013-03-16 10:24:00,66.0,46.3,30.06,SE,135,3.7,-999.0,49,-99.99,,,0.00,Acu-Link.com,2013-03-16 14:24:00,
2013-03-16 10:39:00,67.3,49.1,30.06,South,180,6.3,-999.0,52,-99.99,,,0.00,Acu-Link.com,2013-03-16 14:39:00,
2013-03-16 10:54:00,68.7,50.4,30.06,SSW,202,2.7,-999.0,52,-99.99,,,0.00,Acu-Link.com,2013-03-16 14:54:00,
2013-03-16 11:10:00,69.3,50.9,30.05,SSW,202,4.7,-999.0,52,-99.99,,,0.00,Acu-Link.com,2013-03-16 15:10:00,
2013-03-16 11:25:00,71.1,51.5,30.05,SSE,157,3.7,-999.0,50,-99.99,,,0.00,Acu-Link.com,2013-03-16 15:25:00,
2013-03-16 11:40:00,72.0,51.8,30.05,SSE,157,3.2,-999.0,49,-99.99,,,0.00,Acu-Link.com,2013-03-16 15:40:00,
2013-03-16 11:55:00,72.7,51.9,30.04,SE,135,5.3,-999.0,48,-99.99,,,0.00,Acu-Link.com,2013-03-16 15:55:00,
2013-03-16 12:10:00,73.2,51.7,30.04,SW,225,4.7,-999.0,47,-99.99,,,0.00,Acu-Link.com,2013-03-16 16:10:00,
2013-03-16 12:25:00,74.1,51.4,30.04,ESE,112,4.7,-999.0,45,-99.99,,,0.00,Acu-Link.com,2013-03-16 16:25:00,
2013-03-16 12:41:00,73.9,49.3,30.03,NW,315,2.7,-999.0,42,-99.99,,,0.00,Acu-Link.com,2013-03-16 16:41:00,
2013-03-16 13:27:00,76.1,49.3,30.01,SSE,157,2.2,-999.0,39,-99.99,,,0.00,Acu-Link.com,2013-03-16 17:27:00,
2013-03-16 13:57:00,76.1,49.3,29.99,ESE,112,3.2,-999.0,39,-99.99,,,0.00,Acu-Link.com,2013-03-16 17:57:00,
2013-03-16 14:27:00,77.9,49.5,29.97,West,270,3.2,-999.0,37,-99.99,,,0.00,Acu-Link.com,2013-03-16 18:27:00,
2013-03-16 14:43:00,77.5,49.2,29.96,North,0,1.7,-999.0,37,-99.99,,,0.00,Acu-Link.com,2013-03-16 18:43:00,
2013-03-16 14:58:00,78.6,47.9,29.95,South,180,2.2,-999.0,34,-99.99,,,0.00,Acu-Link.com,2013-03-16 18:58:00,
2013-03-16 15:13:00,79.2,47.6,29.95,North,0,2.7,-999.0,33,-99.99,,,0.00,Acu-Link.com,2013-03-16 19:13:00,
2013-03-16 15:28:00,79.9,48.2,29.93,East,90,4.7,-999.0,33,-99.99,,,0.00,Acu-Link.com,2013-03-16 19:28:00,
2013-03-16 15:44:00,78.6,45.4,29.94,SSW,202,4.2,-999.0,31,-99.99,,,0.00,Acu-Link.com,2013-03-16 19:44:00,
2013-03-16 15:59:00,78.6,47.9,29.93,South,180,2.7,-999.0,34,-99.99,,,0.00,Acu-Link.com,2013-03-16 19:59:00,
2013-03-16 16:14:00,78.4,46.9,29.92,East,90,4.2,-999.0,33,-99.99,,,0.00,Acu-Link.com,2013-03-16 20:14:00,
2013-03-16 16:30:00,79.5,49.4,29.92,South,180,2.7,-999.0,35,-99.99,,,0.00,Acu-Link.com,2013-03-16 20:30:00,
2013-03-16 16:45:00,78.4,46.9,29.91,West,270,4.7,-999.0,33,-99.99,,,0.00,Acu-Link.com,2013-03-16 20:45:00,
2013-03-16 17:00:00,78.8,48.0,29.91,ESE,112,3.7,-999.0,34,-99.99,,,0.00,Acu-Link.com,2013-03-16 21:00:00,
2013-03-16 17:15:00,78.6,48.6,29.91,ESE,112,2.2,-999.0,35,-99.99,,,0.00,Acu-Link.com,2013-03-16 21:15:00,
2013-03-16 17:46:00,77.9,47.3,29.91,ESE,112,2.7,-999.0,34,-99.99,,,0.00,Acu-Link.com,2013-03-16 21:46:00,
2013-03-16 18:17:00,75.9,48.5,29.91,SSW,202,2.7,-999.0,38,-99.99,,,0.00,Acu-Link.com,2013-03-16 22:17:00,
2013-03-16 18:32:00,75.4,48.0,29.92,NW,315,3.2,-999.0,38,-99.99,,,0.00,Acu-Link.com,2013-03-16 22:32:00,
2013-03-16 19:02:00,73.4,46.9,29.91,West,270,0.0,-999.0,39,-99.99,,,0.00,Acu-Link.com,2013-03-16 23:02:00,
2013-03-16 19:18:00,72.1,49.0,29.92,SSW,202,2.7,-999.0,44,-99.99,,,0.00,Acu-Link.com,2013-03-16 23:18:00,
2013-03-16 19:33:00,70.5,48.7,29.92,SW,225,2.7,-999.0,46,-99.99,,,0.00,Acu-Link.com,2013-03-16 23:33:00,
2013-03-16 19:48:00,69.1,48.6,29.93,NNW,337,2.7,-999.0,48,-99.99,,,0.00,Acu-Link.com,2013-03-16 23:48:00,
2013-03-16 20:04:00,67.6,47.8,29.93,West,270,1.7,-999.0,49,-99.99,,,0.00,Acu-Link.com,2013-03-17 00:04:00,
2013-03-16 20:19:00,66.4,47.7,29.94,SW,225,2.7,-999.0,51,-99.99,,,0.00,Acu-Link.com,2013-03-17 00:19:00,
2013-03-16 20:35:00,65.5,47.9,29.95,SSW,202,1.7,-999.0,53,-99.99,,,0.00,Acu-Link.com,2013-03-17 00:35:00,
2013-03-16 20:50:00,64.4,48.4,29.95,SW,225,1.7,-999.0,56,-99.99,,,0.00,Acu-Link.com,2013-03-17 00:50:00,
2013-03-16 21:06:00,63.3,47.8,29.95,South,180,0.0,-999.0,57,-99.99,,,0.00,Acu-Link.com,2013-03-17 01:06:00,
2013-03-16 21:21:00,62.6,48.5,29.96,West,270,1.7,-999.0,60,-99.99,,,0.00,Acu-Link.com,2013-03-17 01:21:00,
2013-03-16 21:36:00,62.2,49.4,29.96,West,270,1.7,-999.0,63,-99.99,,,0.00,Acu-Link.com,2013-03-17 01:36:00,
2013-03-16 21:52:00,61.2,48.9,29.96,SW,225,0.0,-999.0,64,-99.99,,,0.00,Acu-Link.com,2013-03-17 01:52:00,
2013-03-16 22:07:00,59.5,48.1,29.97,SSW,202,0.0,-999.0,66,-99.99,,,0.00,Acu-Link.com,2013-03-17 02:07:00,
2013-03-16 22:23:00,58.6,47.7,29.97,West,270,0.0,-999.0,67,-99.99,,,0.00,Acu-Link.com,2013-03-17 02:23:00,
2013-03-16 22:38:00,57.6,47.5,29.98,WSW,247,0.0,-999.0,69,-99.99,,,0.00,Acu-Link.com,2013-03-17 02:38:00,
2013-03-16 22:54:00,57.0,47.7,29.98,WSW,247,0.0,-999.0,71,-99.99,,,0.00,Acu-Link.com,2013-03-17 02:54:00,
2013-03-16 23:09:00,56.7,48.5,29.98,SW,225,0.0,-999.0,74,-99.99,,,0.00,Acu-Link.com,2013-03-17 03:09:00,
2013-03-16 23:24:00,56.5,49.0,29.98,South,180,0.0,-999.0,76,-99.99,,,0.00,Acu-Link.com,2013-03-17 03:24:00,
2013-03-16 23:39:00,56.1,49.3,29.98,SSW,202,0.0,-999.0,78,-99.99,,,0.00,Acu-Link.com,2013-03-17 03:39:00,
2013-03-16 23:55:00,55.4,48.3,29.98,SW,225,0.0,-999.0,77,-99.99,,,0.00,Acu-Link.com,2013-03-17 03:55:00,